EHI
5 6 7 7 7 6 6 6 5 5 4 4 4 5 6 4 2 1 1 1 0 0 0 0 0 0 0 0 0 0 0 0 1 2 3 3 3 3
8 8 9 11 11 9 8 7 7 7 5 4 4 5 5 4 1 1 2 2 1 0 0 0 0 0 0 0 0 0 0 0 0 1 2 2 2 2
12 11 11 12 13 12 10 9 9 8 6 4 3 4 5 4 3 2 1 2 2 1 0 0 0 0 0 0 0 0 0 0 0 0 1 1 1 1
14 13 12 12 12 11 9 8 8 8 6 4 3 4 4 5 6 3 2 2 2 0 0 0 0 0 0 0 0 0 0 0 0 0 0 0 0 0
14 13 13 12 10 8 7 6 5 5 6 5 5 5 5 6 6 4 3 5 3 0 0 0 0 0 0 0 0 0 0 0 0 0 0 0 0 0
12 12 11 10 8 6 6 6 5 4 6 8 8 7 6 6 6 5 4 6 5 2 1 1 1 1 0 0 0 0 0 0 0 0 0 0 0 0
10 9 8 7 5 3 4 5 5 5 6 9 9 8 7 7 7 5 3 5 6 4 3 3 2 1 0 0 0 0 0 0 0 0 0 0 0 0
7 6 5 4 2 1 1 1 2 3 5 8 9 9 8 8 7 4 3 3 4 4 4 3 2 1 0 0 0 0 0 0 0 0 0 0 0 0
5 4 3 3 3 2 1 1 1 2 4 6 9 9 8 7 5 4 3 2 2 3 3 2 1 0 0 0 0 0 0 0 0 0 0 0 0 0
5 5 4 4 4 3 2 2 3 3 2 4 6 6 4 3 3 3 4 3 2 2 2 1 0 0 0 0 0 0 0 0 0 0 0 0 0 0
8 6 4 3 3 2 3 3 3 2 1 1 2 2 1 0 1 2 3 2 1 1 2 1 0 0 1 0 0 0 0 0 0 0 0 0 0 0
11 7 3 1 1 1 2 3 3 1 0 0 0 0 0 0 0 1 1 1 0 1 2 1 0 0 0 0 0 0 0 0 0 0 0 0 0 0
12 8 3 1 0 0 1 2 2 1 0 0 1 1 1 0 0 0 0 0 0 1 2 1 0 0 0 0 0 0 0 0 0 0 0 0 0 0
11 8 4 1 0 0 0 1 1 1 0 1 2 2 1 0 0 0 0 0 0 0 1 1 0 0 0 0 0 0 0 0 0 0 0 0 0 0
8 5 3 1 0 0 0 0 0 0 1 2 2 1 0 0 0 0 0 0 0 0 0 0 0 0 0 0 0 0 0 0 0 0 0 0 0 0
5 4 2 0 0 0 1 1 0 0 1 2 1 0 0 0 0 0 0 0 0 0 0 0 0 0 0 0 0 0 0 0 0 0 0 0 0 0
4 4 2 0 0 1 2 2 1 0 1 1 0 0 0 0 0 0 0 0 0 0 0 0 0 0 0 0 0 0 0 0 0 0 0 0 0 0
2 3 2 0 1 2 3 2 1 0 0 0 0 0 0 0 0 0 0 0 0 0 0 0 0 0 0 0 0 0 0 0 0 0 0 0 0 0
2 3 2 1 2 3 3 1 0 0 0 0 0 0 0 0 0 0 0 0 0 0 0 0 0 0 0 0 0 0 0 0 0 0 0 0 0 0
3 4 4 4 4 4 3 1 0 1 0 0 0 0 0 0 0 0 0 0 0 0 0 0 0 0 0 0 0 0 0 0 0 0 0 0 0 0
4 5 6 6 5 4 2 1 0 0 0 0 0 0 0 0 0 0 0 0 0 0 0 0 0 0 0 0 0 0 0 0 0 0 0 0 0 0
4 4 5 5 4 3 1 0 0 0 0 0 0 0 0 0 0 0 0 0 0 0 0 0 0 0 0 0 0 0 0 0 0 0 0 0 0 0
3 4 4 3 2 1 0 0 0 0 0 0 0 0 0 0 0 0 0 0 0 0 0 0 0 0 0 0 0 0 0 0 0 0 0 0 0 0
Wind_Speed
4 4 4 3 4 4 5 5 6 6 5 3 3 3 2 3 1 4 4 3 4 4 5 5 6 6 6 6 7 7 6 7 7 8 9 10 10 11
3 3 4 3 3 3 4 4 5 6 5 3 3 3 3 4 2 5 4 3 4 4 4 4 4 5 5 5 5 5 5 6 6 7 8 8 9 9
3 3 3 4 3 3 3 4 4 4 5 5 3 3 3 5 3 4 3 3 2 4 3 3 3 3 4 4 4 4 4 5 5 5 6 7 7 7
3 3 3 3 3 3 3 4 4 4 5 6 4 3 3 3 3 4 3 2 2 4 4 3 3 3 3 2 2 2 2 3 3 3 4 4 5 5
3 3 3 3 3 3 4 4 4 4 4 5 4 3 2 2 3 3 2 2 2 3 5 5 4 4 4 3 2 2 1 1 1 1 2 2 3 4
2 2 2 3 3 3 3 4 4 5 4 4 4 3 2 2 3 3 2 2 2 1 0 2 5 6 6 5 3 2 1 1 0 0 0 1 2 2
2 2 1 2 3 4 4 4 4 4 4 3 3 3 2 2 3 3 3 2 1 1 1 1 2 3 4 5 4 2 1 1 1 1 1 1 1 2
2 2 1 2 1 0 2 4 5 5 5 3 3 3 3 3 3 3 3 2 1 1 2 1 1 0 1 2 4 3 2 1 1 1 2 2 2 2
2 2 2 0 1 1 2 3 2 1 3 5 4 4 4 3 4 3 2 3 3 2 2 1 1 1 0 3 6 4 3 2 1 1 1 1 1 2
2 2 2 1 1 2 3 2 1 0 1 2 3 3 4 4 4 4 3 2 1 0 2 2 1 2 1 2 7 6 4 3 2 2 2 1 2 2
2 1 1 1 3 4 3 2 2 1 1 0 2 3 3 3 4 3 2 2 1 0 1 3 2 2 2 1 4 6 5 5 4 4 3 2 2 4
3 3 3 1 1 3 3 3 3 2 1 1 2 2 3 1 2 3 3 3 2 1 1 2 2 2 2 1 1 2 3 4 5 5 5 4 3 3
3 3 3 3 1 2 4 2 2 4 3 2 2 1 1 1 1 1 2 3 3 2 1 2 2 2 2 1 2 2 2 2 3 3 5 6 5 4
2 1 3 4 3 2 1 1 2 5 3 1 1 1 1 1 1 1 2 2 2 2 1 2 2 2 3 2 2 1 2 2 2 2 2 5 5 5
1 3 3 4 4 3 2 2 3 3 1 1 1 1 1 2 1 1 1 1 2 1 1 2 3 3 4 3 2 1 2 2 2 2 2 2 3 3
3 5 6 4 3 1 3 3 2 1 2 1 1 1 1 1 1 2 2 1 1 1 1 2 3 4 4 4 3 2 2 2 2 2 2 2 2 3
4 4 3 3 3 2 2 2 1 1 1 1 1 1 1 1 1 1 2 2 2 2 1 1 2 3 3 4 4 3 2 2 2 2 3 3 3 3
5 4 3 3 3 3 2 2 1 1 1 1 1 1 1 1 1 2 2 2 3 3 2 2 2 3 3 2 2 4 3 3 2 2 3 4 3 3
5 4 3 3 3 3 2 2 2 1 1 1 1 1 1 1 1 2 2 3 3 3 3 2 2 3 5 4 2 3 4 4 3 3 3 4 4 3
4 4 4 3 3 3 2 2 2 2 2 2 1 1 1 2 2 2 2 3 4 4 3 2 2 3 5 5 4 3 4 4 4 4 4 4 3 1
4 3 3 3 3 3 2 2 1 1 1 2 1 2 2 2 2 3 3 2 4 4 4 3 2 4 6 5 5 4 2 4 4 4 5 4 4 3
3 3 3 2 2 2 2 2 2 2 2 2 2 2 2 3 3 4 3 3 4 4 5 4 3 4 5 5 6 5 4 3 5 7 7 6 5 5
2 2 2 2 2 1 1 2 2 1 1 2 2 2 3 3 4 4 4 4 4 4 5 5 4 4 4 5 6 5 6 5 4 4 4 7 8 7
Wind_Direction
267 260 263 271 269 271 269 265 272 280 281 260 260 257 254 260 251 257 257 197 205 221 226 232 238 235 229 228 231 233 237 239 239 239 239 240 243 241
268 285 278 276 276 274 277 274 266 272 281 293 279 282 286 279 240 268 260 203 201 210 221 227 233 236 228 224 224 225 229 234 237 237 235 236 236 235
265 267 274 288 286 282 278 277 276 275 275 286 291 292 284 280 284 282 269 254 203 176 197 212 222 222 216 216 217 221 229 235 238 239 237 235 233 227
264 272 279 278 276 288 290 288 288 284 277 283 286 280 277 277 285 283 282 266 257 143 157 171 180 177 175 178 191 212 228 235 242 245 243 233 229 222
259 267 279 288 286 290 288 290 287 281 281 278 283 296 285 291 287 273 272 278 267 157 157 161 159 156 150 149 151 154 173 219 246 261 251 234 223 214
250 260 272 285 288 287 278 283 290 289 283 278 284 287 292 300 287 289 278 258 266 270 120 170 163 161 150 146 137 131 135 147 169 268 239 221 208 202
233 253 286 17 6 330 318 313 302 291 289 290 295 299 312 318 307 293 290 278 245 295 272 222 185 178 159 153 140 118 122 129 112 85 121 140 158 174
224 241 214 182 153 234 337 336 333 309 307 301 295 300 307 307 310 295 299 295 287 345 293 288 283 222 143 108 104 116 128 126 104 95 108 125 137 149
222 242 262 106 234 244 203 212 227 307 314 306 307 310 312 318 310 304 308 307 316 344 298 287 319 297 227 110 131 142 145 149 147 138 134 153 165 166
212 237 262 275 356 318 274 251 251 277 302 282 308 314 328 326 304 282 277 267 255 225 295 278 263 270 254 150 151 163 172 182 184 182 185 202 212 209
194 178 247 203 42 331 277 265 262 242 154 20 343 327 328 322 311 291 282 266 275 209 331 298 287 274 253 205 157 171 184 193 196 199 200 204 231 229
176 158 99 48 52 315 270 265 264 274 283 220 218 227 238 214 246 285 298 291 301 295 85 293 298 289 264 218 177 180 190 186 196 201 199 197 213 233
195 186 136 131 166 270 276 278 303 290 256 254 244 234 228 248 260 288 307 301 305 306 12 286 290 285 278 263 245 215 211 205 205 202 195 194 208 244
205 184 121 138 171 216 266 355 293 274 257 255 268 285 306 323 343 328 318 311 312 311 331 292 280 278 277 270 265 240 234 226 222 228 221 190 207 216
147 96 122 159 180 175 166 233 246 250 263 268 289 310 329 339 307 258 228 238 237 244 267 276 281 284 280 281 289 271 263 260 245 244 230 222 229 228
169 144 158 175 204 143 163 193 226 301 302 293 299 299 296 280 296 316 305 286 265 217 183 243 266 278 276 281 276 266 265 265 254 256 257 242 231 233
181 176 179 173 184 184 182 179 190 191 249 292 300 304 300 313 328 324 309 292 282 285 273 255 256 260 274 289 283 281 278 273 255 242 252 247 230 230
191 183 185 191 197 197 196 183 183 210 257 266 275 292 303 309 312 311 306 307 306 300 301 302 295 272 253 222 265 291 284 283 278 242 250 257 250 234
197 190 189 191 196 198 199 199 195 184 240 256 266 274 286 299 317 321 318 314 308 307 307 307 296 292 290 287 213 242 290 288 277 262 258 266 266 255
201 194 190 191 192 198 206 207 202 184 203 230 246 276 285 290 302 303 306 325 313 305 299 296 305 304 299 302 301 271 236 275 288 281 278 270 266 240
197 205 200 194 193 197 203 206 205 213 231 246 244 277 284 280 290 299 300 306 289 297 304 310 333 272 275 277 276 275 248 215 257 277 280 277 274 259
201 202 200 202 199 200 201 213 220 219 222 245 259 273 285 289 287 285 293 299 296 302 305 306 300 278 281 286 290 293 291 258 225 231 255 270 288 288
208 205 192 190 189 193 200 224 240 247 253 270 278 277 279 283 286 290 294 297 302 306 302 300 299 291 292 293 294 298 301 295 279 249 231 217 228 242